This demonstration page uses our WeatherBlox Daily Observations layout. Learn more.

Left ArrowRight Arrow

39.92423, -83.80882

Hourly Observations for March 9, 2022

Temp ( °F °C ) Dew Point ( °F °C ) Humidity (%) Winds ( mph kmh ) Pressure ( in mb ) Visibility ( mi km ) Precip ( " mm )
12:56 am 00:56 Cloudy 34 1.1 34 1.1 100 100 E 5 7 30.02 1017 10 16 0.00 0.00
1:56 am 01:56 Cloudy 34 1.1 31 -0.6 89 89 NNE 6 9 30.00 1016 10 16 0.00 0.00
2:56 am 02:56 Cloudy 34 1.1 32 0 92 92 NNE 6 9 29.99 1016 10 16 0.00 0.00
3:56 am 03:56 Cloudy 35 1.7 30 -1.1 82 82 NNE 7 11 29.96 1014 10 16 0.00 0.00
4:56 am 04:56 Cloudy 34 1.1 30 -1.1 85 85 NNE 7 11 29.94 1014 10 16 0.00 0.00
5:56 am 05:56 Cloudy 34 1.1 29 -1.7 82 82 NNE 5 7 29.94 1014 10 16 0.00 0.00
6:56 am 06:56 Cloudy 34 1.1 30 -1.1 85 85 NNE 3 6 29.95 1014 10 16 0.00 0.00
7:56 am 07:56 Cloudy with Light Snow 34 1.1 32 0 92 92 NNW 8 13 29.98 1015 4 6 0.00 0.00
8:06 am 08:06 Cloudy with Light Snow 34 1 32 0 93 93 NNW 6 9 30.00 1016 2 3 0.00 0.00
8:13 am 08:13 Cloudy with Light Snow 34 1 34 1 100 100 NNW 8 13 30.00 1016 2 3 0.00 0.00
8:33 am 08:33 Cloudy with Light Snow 34 1 34 1 100 100 N 6 9 30.01 1016 3 4 0.00 0.00
8:56 am 08:56 Cloudy with Light Snow 34 1 N/A N/A NNW 5 7 30.00 1016 3 5 0.00 0.00
9:03 am 09:03 Cloudy with Light Snow 34 1 N/A N/A NNW 7 11 30.02 1017 3 4 0.00 0.00
9:16 am 09:16 Cloudy with Light Snow 34 1 N/A N/A NNW 8 13 30.03 1017 1 2 0.00 0.00
9:26 am 09:26 Cloudy with Light Snow 34 1 N/A N/A NNW 5 7 30.02 1017 1 2 0.00 0.00
9:34 am 09:34 Cloudy with Light Snow 34 1 N/A N/A NNW 3 6 30.03 1017 1 2 0.00 0.00
9:51 am 09:51 Cloudy with Light Snow 34 1 N/A N/A N 5 7 30.03 1017 2 3 0.00 0.00
9:56 am 09:56 Cloudy with Light Snow 34 1 N/A N/A NW 5 7 30.01 1016 2 3 0.00 0.00
10:02 am 10:02 Cloudy with Light Snow 34 1 N/A N/A Calm 30.03 1017 3 5 0.00 0.00
10:24 am 10:24 Cloudy with Light Wintry Mix 34 1 34 1 100 100 NW 6 9 30.04 1017 3 4 0.00 0.00
10:32 am 10:32 Cloudy with Light Wintry Mix 34 1 34 1 100 100 NNW 5 7 30.03 1017 3 5 0.00 0.00
10:56 am 10:56 Cloudy 35 1.7 35 1.7 100 100 VRB 5 7 30.02 1017 7 11 0.00 0.00
11:56 am 11:56 Cloudy 38 3.3 34 1.1 86 86 WNW 8 13 30.03 1017 10 16 0.00 0.00
12:11 pm 12:11 Cloudy 37 3 36 2 93 93 W 6 9 30.04 1017 10 16 0.00 0.00
12:56 pm 12:56 Mostly Cloudy 41 5 33 0.6 73 73 NNW 6 9 30.02 1017 10 16 0.00 0.00
1:14 pm 13:14 Partly Cloudy 43 6 32 0 66 66 W 8 13 30.02 1017 10 16 0.00 0.00
1:56 pm 13:56 Mostly Sunny 43 6.1 31 -0.6 63 63 WNW 13 20 30.02 1017 10 16 0.00 0.00
2:56 pm 14:56 Sunny 43 6.1 29 -1.7 58 58 NW 12 19 30.01 1016 10 16 0.00 0.00
3:56 pm 15:56 Sunny 45 7.2 28 -2.2 52 52 WNW 10 17 30.02 1017 10 16 0.00 0.00
4:56 pm 16:56 Sunny 45 7.2 27 -2.8 49 49 NW 10 17 30.02 1017 10 16 0.00 0.00
5:56 pm 17:56 Sunny 44 6.7 27 -2.8 51 51 NW 8 13 30.03 1017 10 16 0.00 0.00
6:56 pm 18:56 Clear 41 5 27 -2.8 57 57 Calm 30.08 1019 10 16 0.00 0.00
7:56 pm 19:56 Clear 38 3.3 27 -2.8 65 65 Calm 30.11 1020 10 16 0.00 0.00
8:23 pm 20:23 Mostly Clear 36 2 28 -2 75 75 SSW 3 6 30.15 1021 10 16 0.00 0.00
8:56 pm 20:56 Clear 36 2.2 27 -2.8 70 70 Calm 30.14 1021 10 16 0.00 0.00
9:56 pm 21:56 Clear 32 0 28 -2.2 85 85 NNW 6 9 30.13 1020 10 16 0.00 0.00
10:56 pm 22:56 Clear 34 1.1 26 -3.3 73 73 Calm 30.12 1020 10 16 0.00 0.00
11:56 pm 23:56 Clear 32 0 28 -2.2 85 85 Calm 30.12 1020 10 16 0.00 0.00

Powered by AerisWeather